#timestamp,LO_Frequency,Hit,StdDev 
1505635215.3,286046992.3,N
1505635235.2,286046990.8,Y
1505635255.0,286046999.6,P
1505635255.9,286046999.6,N
1505635275.7,286046999.1,N
1505635295.6,286046998.5,N
1505635315.4,286046999.4,N
1505635335.2,286047002.3,N
1505635355.1,286047001.4,N
1505635356.0,286047001.4,N
1505635375.8,286047001.3,N
1505635395.6,286047003.3,N
1505635415.5,286047000.0,N
1505635435.3,286047005.6,N
1505635455.1,286047003.2,N
1505635475.9,286047002.7,N
1505635495.7,286047000.7,N
1505635515.5,286046998.3,N
1505635535.4,286046999.3,N
1505635555.2,286046997.0,N
1505635575.0,286046996.6,N
1505635575.9,286046996.6,N
1505635595.8,286046998.3,N
1505635615.6,286046999.0,N
1505635635.4,286047001.5,N
1505635655.2,286046998.9,N
1505635675.1,286046997.5,N
1505635676.0,286046997.5,N
1505635695.8,286047001.2,N
1505635715.6,286047002.1,N
1505635735.5,286047001.9,N
1505635755.3,286047004.3,N
1505635775.1,286047001.3,N
1505635795.9,286047001.1,N
1505635815.7,286046999.1,N
1505635835.5,286047000.8,N
1505635855.4,286047001.4,N
1505635875.2,286047004.9,N
1505635895.0,286047004.6,N
1505635895.9,286047004.6,N
1505635915.8,286047006.7,N
1505635935.6,286047008.9,Y
1505635955.4,286047007.5,P
1505635975.3,286047005.0,N
1505635995.1,286047004.2,N
1505635996.0,286047004.2,N
1505636015.8,286047005.7,N
1505636035.7,286047003.4,N
1505636055.5,286047000.1,N
1505636075.3,286047002.8,N
1505636095.1,286047001.0,N
1505636115.9,286046998.8,N
1505636135.7,286046996.1,N
1505636155.5,286046998.0,N
1505636175.4,286046997.7,N
1505636195.2,286046999.7,N
1505636215.0,286047000.8,N
1505636215.9,286047000.8,N
1505636235.8,286046999.2,N
1505636255.6,286046997.9,N
1505636275.4,286046999.6,N
1505636295.3,286046995.9,N
1505636315.1,286046996.7,N
1505636316.0,286046996.7,N
1505636335.8,286046998.9,N
1505636355.7,286047001.5,N
1505636375.5,286046998.4,N
1505636395.3,286046998.6,N
1505636415.1,286047004.4,N
1505636435.9,286047001.3,N
1505636455.7,286047003.7,N
1505636475.5,286047002.0,N
1505636495.4,286047000.9,N
1505636515.2,286047001.2,N
1505636535.0,286047000.6,N
1505636535.9,286047000.6,N
1505636555.8,286046998.8,N
1505636575.6,286046997.9,N
1505636595.4,286046995.5,N
1505636615.3,286046999.3,N
1505636635.1,286046998.0,N
1505636636.0,286046998.0,N
1505636655.8,286046996.9,N
1505636675.7,286046999.3,N
1505636695.5,286046996.2,N
1505636715.3,286046993.8,N
1505636735.2,286046993.4,N
1505636755.9,286046994.4,N
1505636775.7,286046992.4,N
1505636795.5,286046992.4,N
1505636815.4,286046994.0,N
1505636835.2,286046996.9,N
1505636855.0,286046993.5,N
1505636855.9,286046993.5,N
1505636875.8,286046992.4,N
1505636895.6,286046998.8,N
1505636915.4,286046996.2,N
1505636935.3,286046993.3,N
1505636955.1,286046993.1,N
1505636975.8,286046991.8,N
1505636995.7,286046991.8,N
1505637015.5,286046992.7,N
1505637035.3,286046990.8,Y
1505637055.2,286046994.8,P
1505637075.0,286046994.3,P
1505637075.9,286046994.3,P
1505637095.8,286046993.4,Y
1505637115.6,286047002.3,P
1505637135.4,286047000.3,N
1505637155.2,286046998.1,N
1505637175.1,286046996.6,N
1505637176.0,286046996.6,N
1505637195.8,286046999.0,N
1505637215.6,286047001.9,N
1505637235.5,286046999.8,N
1505637255.3,286047002.3,N
1505637275.1,286047005.7,N
1505637295.9,286047003.7,N
1505637315.7,286047007.5,N
1505637335.5,286047006.4,N
1505637355.4,286047006.3,N
1505637375.2,286047007.6,N
1505637395.0,286047003.2,N
1505637395.9,286047003.2,N
1505637415.8,286047003.4,N
1505637435.6,286047003.3,N
1505637455.4,286047006.3,N
1505637475.2,286047005.0,N
1505637495.1,286047004.5,N
1505637496.0,286047004.5,N
1505637515.8,286047006.9,N
1505637535.6,286047006.6,N
1505637555.5,286047010.8,Y
1505637575.3,286047004.8,P
1505637595.1,286047003.3,P
1505637615.9,286046999.7,N
1505637635.7,286046999.8,N
1505637655.5,286046999.9,N
1505637675.4,286046996.9,N
1505637695.2,286046998.1,N
1505637715.0,286047002.4,N
1505637715.9,286047002.4,N
1505637735.8,286047002.6,N
1505637755.6,286047003.3,N
1505637775.4,286047003.0,N
1505637795.3,286046999.7,N
1505637815.1,286047002.4,N
1505637816.0,286047002.4,N
1505637835.8,286046999.7,N
1505637855.7,286047001.8,N
1505637875.5,286046999.9,N
1505637895.3,286047002.1,N
1505637915.1,286047001.0,N
1505637935.9,286047000.6,N
1505637955.7,286047000.3,N
1505637975.5,286046996.8,N
1505637995.4,286046997.9,N
1505638015.2,286046996.1,N
1505638035.0,286046993.8,N
1505638035.9,286046993.8,N
1505638055.8,286046996.4,N
1505638075.6,286046995.4,N
1505638095.4,286046997.2,N
1505638115.3,286046996.1,N
1505638135.1,286046995.7,N
1505638136.0,286046995.7,N
1505638155.8,286047000.7,N
1505638175.7,286046999.4,N
1505638195.5,286046998.4,N
1505638215.3,286046998.7,N
1505638235.2,286046999.4,N
1505638255.9,286046999.4,N
1505638275.7,286046998.9,N
1505638295.6,286047001.0,N
1505638315.4,286046998.8,N
1505638335.2,286046997.7,N
1505638355.0,286046996.1,N
1505638356.0,286046996.1,N
1505638375.8,286046995.4,N
1505638395.6,286046995.7,N
1505638415.4,286046999.2,N
1505638435.3,286046995.1,N
1505638455.1,286046995.7,N
1505638475.8,286046996.3,N
1505638495.7,286046999.8,N
1505638515.5,286047003.2,N
1505638535.3,286047001.4,N
1505638555.2,286047000.1,N
1505638575.9,286046998.9,N
1505638595.7,286046997.2,N
1505638615.6,286046995.0,N
1505638635.4,286046995.1,N
1505638655.2,286046996.9,N
1505638675.1,286046996.8,N
1505638676.0,286046996.8,N
1505638695.8,286046996.1,N
1505638715.6,286046994.7,N
1505638735.5,286046994.2,N
1505638755.3,286046993.6,N
1505638775.1,286046996.2,N
1505638795.8,286046999.3,N
